(131408) = 2001 MN3

Discovered at Socorro on 2001-06-18 by LINEAR.

Orbit

Orbit type: Main Belt

Note: WebGL enabled browser required.

epoch2024-03-31.0
epoch JD2460400.5
perihelion date2018-09-13.12636
perihelion JD2458374.62636
argument of perihelion (°)75.99723
ascending node (°)194.05374
inclination (°)32.21727
eccentricity0.1060267
perihelion distance (AU)2.8698587
Tisserand w.r.t. Jupiter2.9
ΔV w.r.t. Earth (km/sec)14.7
semimajor axis (AU)3.2102286
mean anomaly (°)347.14608
mean daily motion (°/day)0.17135620
aphelion distance (AU)3.551
period (years)5.75
P-vector [x]-0.03538750
P-vector [y]-0.99028526
P-vector [z]0.13447239
Q-vector [x]0.99095282
Q-vector [y]-0.01733942
Q-vector [z]0.13308586
absolute magnitude13.86
phase slope0.15
uncertainty0
referenceMPEC 2024-F14
observations used1313
oppositions20
arc length (days)8774
first opposition used2000
last opposition used2024
residual rms (arc-secs)0.69
perturbers coarse indicatorM-v
perturbers precise indicator003Ek
first observation date used2000-03-09.0
last observation date used2024-03-17.0
computer nameMPCLINUX
JD of orbit computation2456966.718342
perihelion JD uncertainty (days)2.2953E-04
argument of perihelion uncertainty (°)4.1653E-05
ascending node uncertainty (°)8.2606E-06
inclination uncertainty (°)9.4639E-06
eccentricity uncertainty 4.7823E-08
perihelion distance uncertainty (AU)1.5594E-07
Minimum Orbit Intersection Distances (in AU)
for orbit epoch: 2460400.5, reference: E2024-GD4
Mercury2.4876
Venus2.24751
Earth2.00232
Mars1.43625
Jupiter1.66024
Saturn5.91204
Uranus15.3174
Neptune26.493

Observations

1334 total observations over interval: 2000 03 09.37072 – 2024 03 17.575802
These data are available for download (format description).

Date (UT) J2000 RA J2000 Dec Magn Location Ref
2000 03 09.37072 11 47 10.79 -13 49 10.5 17.8   704 – Lincoln Laboratory ETS, New Mexico MPS 35806
2000 03 09.38356 11 47 10.26 -13 49 01.9 18.2   704 – Lincoln Laboratory ETS, New Mexico MPS 35806
2000 03 09.39640 11 47 09.71 -13 48 53.8 18.2   704 – Lincoln Laboratory ETS, New Mexico MPS 35806
2000 03 09.40931 11 47 09.22 -13 48 46.1 17.8   704 – Lincoln Laboratory ETS, New Mexico MPS 35806
2000 03 09.42214 11 47 08.69 -13 48 37.9 17.7   704 – Lincoln Laboratory ETS, New Mexico MPS 35806
2000 03 31.30272 11 32 49.33 -09 18 25.7 18.2   704 – Lincoln Laboratory ETS, New Mexico MPS 35806
2000 03 31.37284 11 32 46.80 -09 17 27.6 18.7   704 – Lincoln Laboratory ETS, New Mexico MPS 35806
2000 03 31.38960 11 32 46.22 -09 17 15.5 18.3   704 – Lincoln Laboratory ETS, New Mexico MPS 35806
2000 04 07.21667 11 28 58.23 -07 46 47.8 17.8   704 – Lincoln Laboratory ETS, New Mexico MPS 35806
2000 04 07.23228 11 28 57.74 -07 46 35.3 18.0   704 – Lincoln Laboratory ETS, New Mexico MPS 35806
2000 04 07.27974 11 28 56.17 -07 45 56.7 17.7   704 – Lincoln Laboratory ETS, New Mexico MPS 35806
2001 06 18.29480 17 38 06.40 +22 08 07.9 17.7   704 – Lincoln Laboratory ETS, New Mexico MPS 31848
2001 06 18.30855 17 38 05.77 +22 08 10.9 17.7   704 – Lincoln Laboratory ETS, New Mexico MPS 31848
2001 06 18.32137 17 38 05.13 +22 08 12.3 16.9   704 – Lincoln Laboratory ETS, New Mexico MPS 31848
2001 06 18.33453 17 38 04.53 +22 08 14.5 16.8   704 – Lincoln Laboratory ETS, New Mexico MPS 31848
2001 06 18.58020 17 37 53.26 +22 08 52.8 20.5   608 – Haleakala-AMOS MPS 31848
2001 06 18.59040 17 37 52.73 +22 08 54.9 19.9   608 – Haleakala-AMOS MPS 31848
2001 06 18.60061 17 37 52.26 +22 08 56.3 20.1   608 – Haleakala-AMOS MPS 31848
2001 06 22.23430 17 35 07.85 +22 16 09.6 18.1   704 – Lincoln Laboratory ETS, New Mexico MPS 31848
2001 06 22.24717 17 35 07.21 +22 16 12.0 18.5   704 – Lincoln Laboratory ETS, New Mexico MPS 31848
2001 06 22.25998 17 35 06.61 +22 16 12.1 18.3   704 – Lincoln Laboratory ETS, New Mexico MPS 31848
2001 06 22.27280 17 35 06.04 +22 16 13.4 18.1   704 – Lincoln Laboratory ETS, New Mexico MPS 31848
2001 06 22.28561 17 35 05.46 +22 16 15.3 18.2   704 – Lincoln Laboratory ETS, New Mexico MPS 31849
2001 06 25.27779 17 32 52.71 +22 18 43.7 18.5   644 – Palomar Mountain/NEAT MPS 31849
2001 06 25.28769 17 32 52.24 +22 18 43.9 19.0   644 – Palomar Mountain/NEAT MPS 31849
2001 06 25.29766 17 32 51.80 +22 18 44.0 17.9   644 – Palomar Mountain/NEAT MPS 31849
2001 09 10.11734 17 30 35.55 +12 22 05.9 19.5   704 – Lincoln Laboratory ETS, New Mexico MPS 34422
2001 09 10.13130 17 30 36.21 +12 21 57.0 19.6   704 – Lincoln Laboratory ETS, New Mexico MPS 34422
2001 09 10.14527 17 30 36.83 +12 21 48.0 19.1   704 – Lincoln Laboratory ETS, New Mexico MPS 34422
2001 09 10.15922 17 30 37.42 +12 21 38.9 18.9   704 – Lincoln Laboratory ETS, New Mexico MPS 34422
2001 09 10.17321 17 30 38.06 +12 21 29.7 19.0   704 – Lincoln Laboratory ETS, New Mexico MPS 34422
2001 09 17.12330 17 36 22.33 +11 09 16.7 18.7   704 – Lincoln Laboratory ETS, New Mexico MPS 35806
2001 09 17.13714 17 36 23.06 +11 09 08.2 19.4   704 – Lincoln Laboratory ETS, New Mexico MPS 35806
2001 09 17.15099 17 36 23.78 +11 09 00.0 18.7   704 – Lincoln Laboratory ETS, New Mexico MPS 35806
2001 09 17.16484 17 36 24.41 +11 08 50.6 19.0   704 – Lincoln Laboratory ETS, New Mexico MPS 35806
2002 08 13.30262 00 18 04.02 +17 38 21.8 19.2   704 – Lincoln Laboratory ETS, New Mexico MPS 59824
2002 08 13.33259 00 18 03.68 +17 38 12.5 19.0   704 – Lincoln Laboratory ETS, New Mexico MPS 59824
2002 08 13.34734 00 18 03.55 +17 38 07.6 18.9   704 – Lincoln Laboratory ETS, New Mexico MPS 59824
2002 08 13.36218 00 18 03.27 +17 38 03.3 18.8   704 – Lincoln Laboratory ETS, New Mexico MPS 59824
2002 09 03.42855 00 09 59.51 +15 02 14.5 17.7   644 – Palomar Mountain/NEAT MPS 61143
2002 09 03.43929 00 09 59.14 +15 02 08.2 18.1   644 – Palomar Mountain/NEAT MPS 61143
2002 09 03.45011 00 09 58.77 +15 02 01.7 18.7   644 – Palomar Mountain/NEAT MPS 61143
2002 09 07.29743 00 07 47.70 +14 22 46.7 18.4   704 – Lincoln Laboratory ETS, New Mexico MPS 61143
2002 09 07.31183 00 07 47.22 +14 22 38.9 19.2   704 – Lincoln Laboratory ETS, New Mexico MPS 61143
2002 09 07.32647 00 07 46.59 +14 22 29.4 19.2   704 – Lincoln Laboratory ETS, New Mexico MPS 61143
2002 09 12.49452 00 04 36.61 +13 25 06.3 18.4   644 – Palomar Mountain/NEAT MPS 61143
2002 09 12.50502 00 04 36.19 +13 24 59.0 18.7   644 – Palomar Mountain/NEAT MPS 61143
2002 09 12.51546 00 04 35.79 +13 24 51.6 18.4   644 – Palomar Mountain/NEAT MPS 61143
2002 09 20.23497 23 59 35.38 +11 50 57.1 18.7   644 – Palomar Mountain/NEAT MPS 81422
2002 09 20.31813 23 59 31.97 +11 49 54.0 18.6   644 – Palomar Mountain/NEAT MPS 81422
2002 09 20.38393 23 59 29.27 +11 49 03.9 18.7   644 – Palomar Mountain/NEAT MPS 81422
2002 09 28.42134 23 54 13.41 +10 03 56.5 18.9   608 – Haleakala-AMOS MPS 63194
2002 09 28.43182 23 54 12.98 +10 03 48.2 19.0   608 – Haleakala-AMOS MPS 63194
2002 09 28.44285 23 54 12.54 +10 03 38.8 20.1   608 – Haleakala-AMOS MPS 63194
2002 10 05.25139 23 49 59.34 +08 32 00.2 18.3   704 – Lincoln Laboratory ETS, New Mexico MPS 63194
2002 10 05.26704 23 49 58.80 +08 31 47.8 18.7   704 – Lincoln Laboratory ETS, New Mexico MPS 63194
2002 10 05.28261 23 49 58.20 +08 31 35.1 19.4   704 – Lincoln Laboratory ETS, New Mexico MPS 63194
2002 10 05.29817 23 49 57.59 +08 31 22.5 18.8   704 – Lincoln Laboratory ETS, New Mexico MPS 63194
2002 10 05.31371 23 49 57.05 +08 31 10.0 18.5   704 – Lincoln Laboratory ETS, New Mexico MPS 63194
2002 10 07.16098 23 48 52.74 +08 06 16.8 18.3 R 699 – Lowell Observatory-LONEOS MPS 63194
2002 10 07.18266 23 48 51.95 +08 05 59.9   699 – Lowell Observatory-LONEOS MPS 63194
2002 10 07.20442 23 48 51.21 +08 05 42.1   699 – Lowell Observatory-LONEOS MPS 63194
2002 10 07.22602 23 48 50.39 +08 05 24.5   699 – Lowell Observatory-LONEOS MPS 63194
2002 10 12.17731 23 46 09.42 +06 59 26.9 19.3   704 – Lincoln Laboratory ETS, New Mexico MPS 63194
2002 10 12.19377 23 46 08.92 +06 59 13.8 18.9   704 – Lincoln Laboratory ETS, New Mexico MPS 63194
2002 10 12.22651 23 46 07.88 +06 58 48.3 18.7   704 – Lincoln Laboratory ETS, New Mexico MPS 63194
2002 10 12.24273 23 46 07.38 +06 58 35.5 18.9   704 – Lincoln Laboratory ETS, New Mexico MPS 63194
2002 10 26.36807 23 40 30.27 +04 03 24.2 20.1   608 – Haleakala-AMOS MPS 65785
2002 10 26.37911 23 40 30.05 +04 03 16.6 19.3   608 – Haleakala-AMOS MPS 65785
2002 10 26.39003 23 40 29.86 +04 03 09.1 19.3   608 – Haleakala-AMOS MPS 65785
2002 10 30.14341 23 39 35.87 +03 21 26.4 20.8 R 683 – Goodricke-Pigott Observatory, Tucson MPS 65785
2002 10 30.15429 23 39 35.84 +03 21 18.5 19.6 R 683 – Goodricke-Pigott Observatory, Tucson MPS 65785
2002 10 30.16796 23 39 35.69 +03 21 09.7 20.4 R 683 – Goodricke-Pigott Observatory, Tucson MPS 65785
2002 10 31.18463 23 39 23.73 +03 10 17.2 19.1   704 – Lincoln Laboratory ETS, New Mexico MPS 65785
2002 10 31.20196 23 39 23.52 +03 10 06.5 18.8   704 – Lincoln Laboratory ETS, New Mexico MPS 65785
2002 10 31.21922 23 39 23.29 +03 09 55.1 18.6   704 – Lincoln Laboratory ETS, New Mexico MPS 65785
2002 10 31.23632 23 39 23.05 +03 09 44.3 19.7   704 – Lincoln Laboratory ETS, New Mexico MPS 65785
2002 12 05.06886 23 44 41.76 -01 00 31.2 18.9 C 704 – Lincoln Laboratory ETS, New Mexico MPS 291260
2002 12 05.08424 23 44 42.25 -01 00 34.4 19.0 C 704 – Lincoln Laboratory ETS, New Mexico MPS 291260
2003 10 18.39641 04 50 24.37 -07 24 12.9 18.9   704 – Lincoln Laboratory ETS, New Mexico MPS 87947
2003 10 18.40779 04 50 24.19 -07 24 20.3 19.2   704 – Lincoln Laboratory ETS, New Mexico MPS 87947
2003 10 18.41915 04 50 24.04 -07 24 27.0 19.1   704 – Lincoln Laboratory ETS, New Mexico MPS 87947
2003 12 10.23181 04 17 53.10 -14 11 28.9 18.9   644 – Palomar Mountain/NEAT MPS 93396
2003 12 10.30887 04 17 49.68 -14 11 39.9 19.0   644 – Palomar Mountain/NEAT MPS 93396
2003 12 10.37257 04 17 46.81 -14 11 48.8 19.2   644 – Palomar Mountain/NEAT MPS 93396
2006 03 09.34652 13 26 00.39 -10 07 55.3 18.3 C 704 – Lincoln Laboratory ETS, New Mexico MPS 294180
2006 03 09.38058 13 25 59.65 -10 07 34.7 18.1 C 704 – Lincoln Laboratory ETS, New Mexico MPS 294180
